NOAA 17 DEB, 48748

Orbit data source: Space-Track

NOAA 17 DEB, 48748 is space debris in SSO originally from a launch on Mon, 24 Jun 2002 UTC launched from the Air Force Western Test Range (AFWTR). Debris objects in space refer to the collection of defunct objects orbiting the Earth. Examples of debris include non-operational satellites, rocket bodies, and fragments generated from explosions, collisions, or faulty payload assembly.

Loading next visibility...
Identifier
48748, 2002-032CH
Orbit
SSO
Country
Flag of USUS
Related business
Manufacturer
Unknown
Mission
Spacecraft
Bus & Motor
Unknown
Mass
Unknown
Launch date (UTC)
2002-06-24 (24 years ago)
Launch vehicle
Unknown
Launch site
Air Force Western Test Range (AFWTR)
Object type
Payload
Rocket body
Debris
Shape & HBR
Unknown shape, 0.1 m
Radar Cross Section
Medium (>0.1 m² and <1 m²)

Expand to show TLE details & history
Last TLE update: 2 days ago

TLE from 2 days ago
0 NOAA 17 DEB
1 48748U 02032CH  26171.40893249  .00005144  00000-0  13166-2 0  9997
2 48748  98.7544 151.9237 0020026 239.5309 120.3907 14.50720979273658
Epoch: 2026-06-20T09:48Z
TLE epoch observation values (Epoch: 2026-06-20T09:48:51.767Z)
Latitude
0.00004°
Longitude
96.08402°
Altitude
733.467 km
Speed
7.485 km/s
True Right ascension
10h 07m 41s
True Declination
0° 00' 00"
Sunlit
Object was in daylight at epoch
Visualization orbit readout
Latitude
Unknown
Longitude
Unknown
Altitude
Unknown
Speed
Unknown
Apparent Right ascension
Unknown
Apparent Declination
Unknown
Sunlit
N/A
Visualization observer readout
Local Sidereal Time
00:50:15
Azimuth
Unknown
Elevation
Unknown
Doppler factor
Unknown
Orbital elements
Apogee altitude
734.63 km
Perigee altitude
706.199 km
Semi-major axis
7,098.552 km
Eccentricity
0.002
Inclination
98.7544°
RAAN
151.9237°
Arg. of periapsis
239.5309°
True anomaly
120.5884°
Mean anomaly
120.3907°
Eccentric anomaly
120.48957°
Mean motion
3.62901 °/min
Orbital period
99.2 mins
BSTAR
0.0013166
Loading maneuver chart data...
Computing Atmospheric mass density...

Documentation

Showing up to 5 results
|